{"data":{"norad_id":47408,"intl_designator":"2021-005BM","name":"STARLINK-2135","alt_names":[],"object_type":"PAYLOAD","status":"ACTIVE","operator":null,"country":"US","launch_date":"2021-01-20","launch_site_code":"AFETR","launch_vehicle":null,"mission":null,"orbit_class":"UNKNOWN","rcs_meters":null,"size_class":null,"mass_kg":null,"dimensions":null,"purposes":["comms"],"wikipedia_slug":null,"has_3d_model":false,"image_url":null,"decayed_at":null,"tle_current":{"epoch":"2026-05-25T06:00:02.000160Z","epoch_age_seconds":57411,"freshness":"FRESH","line1":"1 47408U 21005BM  26145.25002315  .00016730  00000+0  55006-3 0  9992","line2":"2 47408  53.1581  41.1079 0001210  79.8820 123.9718 15.31677142  5810","mean_motion":15.31677142,"eccentricity":0.000121,"inclination_deg":53.1581,"raan_deg":41.1079,"arg_perigee_deg":79.882,"mean_anomaly_deg":123.9718,"bstar":0.00055006,"rev_number":581,"period_min":94.014590967892,"perigee_km":469.97941222032,"apogee_km":471.63685694289,"semimajor_km":6848.9451345816,"source":"CELESTRAK","updated_at":"2026-05-25T13:38:16.555837Z"}}}